Location: Unspecified
(35.7250°N, 0.0000°E)
Time: 22:51:41
(UTC+00:00)

Vanguard 2 - Pass Details

Date: 24 June 2019
Orbit: 553 x 2938 km, 32.9° (Epoch: 20 July)

Event Time Altitude Azimuth Distance (km) Brightness Sun altitude
Rises 08:26:27 0° 255° (WSW) 2,987 10.1 42.1°
Reaches altitude 10° 08:28:26 10° 252° (WSW) 2,220 9.6 42.5°
Maximum altitude 08:33:29 66° 170° (S) 1,039 9.0 43.5°
Drops below altitude 10° 08:41:41 10° 91° (E) 3,531 12.0 45.2°
Sets 08:45:36 0° 89° (E) 4,921 12.4 46.0°
